Location: Madrid
(40.4000°N, 3.6830°W)
Time: 00:14:45
(UTC+02:00)

ISS - Pass Details

Date: 01 August 2020
Orbit: 418 x 420 km, 51.6° (Epoch: 08 August)

Event Time Altitude Azimuth Distance (km) Brightness Sun altitude
Rises 00:20:59 0° 293° (WNW) 2,367 0.9 -25.3°
Reaches altitude 10° 00:23:32 10° 273° (W) 1,499 -0.6 -25.5°
Enters shadow 00:24:02 12° 266° (W) 1,366 -0.9 -25.6°
